Tracking 28790 objects as of 19-Apr-2024
HD Live streaming from Space Station
objects crossing your sky now

DELTA 1 DEB

Track DELTA 1 DEB now!
10-day predictions


NORAD ID: 21324
Int'l Code: 1975-052AS
Perigee: 1,001.3 km
Apogee: 1,469.1 km
Inclination: 99.6 °
Period: 110.0 minutes
Semi major axis: 7606 km
RCS: 0.0145 m2 (small)
Launch date: June 12, 1975
Source: United States (US)
Launch site: AIR FORCE WESTERN TEST RANGE (AFWTR)

Note: This is SATELLITE DEBRIS
Your satellite tracking list
Your tracking list is empty




NASA's NSSDC Master Catalog

Two Line Element Set (TLE):
1 21324U 75052AS  24109.15170959  .00001679  00000-0  39986-2 0  9994
2 21324  99.5813 171.4575 0307540 288.2097 126.6547 13.08729958562583
Source of the keplerian elements: AFSPC